This is the latest recevied weather packets stored in our database for station/object KD7AWQ. If no packets are shown the sender has not sent any weather packets the latest 10 day(s).
| Time | Temp. | Humidity | Pressure | Rain* | Wind** | Luminosity | Snow |
|---|---|---|---|---|---|---|---|
| 1788275091 | 24.44° C | 51% | 1189.9 hPa | 0 mm | - | 349 W/m² | - |
| 1788274789 | 25° C | 50% | 1189.8 hPa | 0 mm | - | 328 W/m² | - |
| 1788274483 | 24.44° C | 51% | 1189.9 hPa | 0 mm | - | 305 W/m² | - |
| 1788274177 | 23.33° C | 55% | 1189.9 hPa | 0 mm | - | 286 W/m² | - |
| 1788273873 | 22.78° C | 58% | 1190.1 hPa | 0 mm | - | 71 W/m² | - |
| 1788273569 | 22.78° C | 56% | 1189.9 hPa | 0 mm | - | 239 W/m² | - |
| 1788273265 | 22.22° C | 61% | 1189.8 hPa | 0 mm | - | 56 W/m² | - |
| 1788272960 | 21.67° C | 62% | 1190 hPa | 0 mm | - | 155 W/m² | - |
| 1788272660 | 21.67° C | 63% | 1190.3 hPa | 0 mm | - | 59 W/m² | - |
| 1788272355 | 21.67° C | 63% | 1189.9 hPa | 0 mm | - | 54 W/m² | - |
| 1788272050 | 21.67° C | 62% | 1189.9 hPa | 0 mm | - | 52 W/m² | - |
| 1788271749 | 21.11° C | 59% | 1190 hPa | 0 mm | - | 52 W/m² | - |
| 1788271448 | 21.11° C | 57% | 1190 hPa | 0 mm | - | 47 W/m² | - |
| 1788271143 | 21.11° C | 59% | 1189.9 hPa | 0 mm | - | 46 W/m² | - |
| 1788270837 | 21.11° C | 59% | 1189.9 hPa | 0 mm | - | 44 W/m² | - |
| 1788270534 | 20.56° C | 61% | 1189.8 hPa | 0 mm | - | 42 W/m² | - |
| 1788270229 | 20.56° C | 62% | 1189.6 hPa | 0 mm | - | 53 W/m² | - |
| 1788269929 | 20° C | 63% | 1189.7 hPa | 0 mm | - | 52 W/m² | - |
| 1788269628 | 20° C | 65% | 1189.2 hPa | 0 mm | - | 44 W/m² | - |
| 1788269327 | 19.44° C | 65% | 1189.3 hPa | 0 mm | - | 37 W/m² | - |
| 1788269022 | 19.44° C | 66% | 1189.1 hPa | 0 mm | - | 30 W/m² | - |
| 1788268721 | 18.89° C | 67% | 1189 hPa | 0 mm | - | 25 W/m² | - |
| 1788268420 | 18.89° C | 67% | 1189 hPa | 0 mm | - | 21 W/m² | - |
| 1788268116 | 18.89° C | 68% | 1189.1 hPa | 0 mm | - | 16 W/m² | - |
| 1788267811 | 18.89° C | 68% | 1189.1 hPa | 0 mm | - | 11 W/m² | - |
* Rain latest hour (hover to see other rain measurements)
** Current wind speed in m/s (hover to see current wind gust speed)